• Em Portugal
  • Lista de países
  • Para 7 dias
  • Temperatura da água
  • Mapas de satélite
  • Mapa do tempo
  • Widgets de tempo
  • user-avatar
    Iniciar Sessão

    Previsão horária em Giumri

    Hoje, 23 Novembro, Quinta-feira

    Tempo Temperatura Precipitação Vento Pressão Humidade
    00:00 -6°C° 0 mm 1 m/s 626 mmHg 86%
    01:00 -6°C° 0,1 mm 1 m/s 626 mmHg 86%
    02:00 -6°C° 0,1 mm 1 m/s 626 mmHg 86%
    03:00 -6°C° 0,1 mm 1 m/s 626 mmHg 86%
    04:00 -6°C° 0,1 mm 1 m/s 626 mmHg 87%
    05:00 -6°C° 0,1 mm 1 m/s 626 mmHg 88%
    06:00 -8°C° 0,1 mm 2 m/s 626 mmHg 89%
    07:00 -7°C° 0,1 mm 2 m/s 627 mmHg 88%
    08:00 -6°C° 0,1 mm 2 m/s 627 mmHg 87%
    09:00 -6°C° 0,1 mm 3 m/s 627 mmHg 87%
    10:00 -6°C° 0,2 mm 3 m/s 627 mmHg 84%
    11:00 -5°C° 0,2 mm 4 m/s 627 mmHg 81%
    12:00 -4°C° 0,2 mm 4 m/s 628 mmHg 79%
    13:00 -4°C° 0,2 mm 4 m/s 628 mmHg 79%
    14:00 -2°C° 0,2 mm 3 m/s 628 mmHg 79%
    15:00 -2°C° 0,2 mm 3 m/s 628 mmHg 79%
    16:00 -3°C° 0,3 mm 2 m/s 628 mmHg 82%
    17:00 -4°C° 0,3 mm 2 m/s 629 mmHg 85%
    18:00 -3°C° 0,3 mm 1 m/s 629 mmHg 88%
    19:00 -4°C° 0,1 mm 1 m/s 629 mmHg 88%
    20:00 -6°C° 0,1 mm 1 m/s 629 mmHg 87%
    21:00 -7°C° 0,1 mm 1 m/s 629 mmHg 87%
    22:00 -7°C° 0 mm 1 m/s 629 mmHg 86%
    23:00 -8°C° 0 mm 1 m/s 629 mmHg 85%

    Amanhã, 24 Novembro, Sexta-feira

    Tempo Temperatura Precipitação Vento Pressão Humidade
    00:00 -8°C° 0 mm 1 m/s 629 mmHg 84%
    01:00 -9°C° 0 mm 1 m/s 629 mmHg 82%
    02:00 -9°C° 0 mm 1 m/s 629 mmHg 81%
    03:00 -10°C° 0 mm 1 m/s 629 mmHg 79%
    04:00 -10°C° 0 mm 1 m/s 629 mmHg 78%
    05:00 -10°C° 0 mm 1 m/s 629 mmHg 77%
    06:00 -11°C° 0 mm 1 m/s 629 mmHg 77%
    07:00 -10°C° 0 mm 1 m/s 630 mmHg 77%
    08:00 -9°C° 0 mm 1 m/s 630 mmHg 77%
    09:00 -8°C° 0 mm 1 m/s 631 mmHg 77%
    10:00 -7°C° 0 mm 1 m/s 631 mmHg 75%
    11:00 -6°C° 0 mm 1 m/s 631 mmHg 73%
    12:00 -4°C° 0 mm 1 m/s 631 mmHg 71%
    13:00 -4°C° 0 mm 1 m/s 631 mmHg 72%
    14:00 -4°C° 0 mm 1 m/s 631 mmHg 74%
    15:00 -4°C° 0 mm 1 m/s 631 mmHg 75%
    16:00 -6°C° 0,1 mm 1 m/s 631 mmHg 77%
    17:00 -7°C° 0,1 mm 1 m/s 631 mmHg 79%
    18:00 -8°C° 0,1 mm 1 m/s 631 mmHg 81%
    19:00 -8°C° 0,1 mm 1 m/s 631 mmHg 82%
    20:00 -8°C° 0,1 mm 1 m/s 632 mmHg 83%
    21:00 -8°C° 0,1 mm 1 m/s 632 mmHg 83%
    22:00 -8°C° 0,1 mm 1 m/s 632 mmHg 84%
    23:00 -9°C° 0,1 mm 1 m/s 632 mmHg 84%

    Depois de amanhã, 25 Novembro, Sábado

    Tempo Temperatura Precipitação Vento Pressão Humidade
    00:00 -9°C° 0,1 mm 1 m/s 632 mmHg 85%
    01:00 -9°C° 0,1 mm 1 m/s 632 mmHg 85%
    02:00 -8°C° 0,1 mm 1 m/s 633 mmHg 85%
    03:00 -8°C° 0,1 mm 1 m/s 633 mmHg 85%
    04:00 -8°C° 0,1 mm 1 m/s 633 mmHg 86%
    05:00 -8°C° 0,1 mm 1 m/s 634 mmHg 86%
    06:00 -8°C° 0,1 mm 1 m/s 634 mmHg 87%
    07:00 -9°C° 0,1 mm 2 m/s 635 mmHg 86%
    08:00 -8°C° 0,1 mm 2 m/s 635 mmHg 84%
    09:00 -8°C° 0,1 mm 2 m/s 636 mmHg 83%
    10:00 -7°C° 0 mm 2 m/s 636 mmHg 80%
    11:00 -6°C° 0 mm 2 m/s 636 mmHg 77%
    12:00 -5°C° 0 mm 2 m/s 636 mmHg 73%
    13:00 -5°C° 0 mm 2 m/s 636 mmHg 74%
    14:00 -5°C° 0 mm 2 m/s 636 mmHg 75%
    15:00 -4°C° 0 mm 1 m/s 635 mmHg 75%
    16:00 -6°C° 0 mm 1 m/s 635 mmHg 77%
    17:00 -8°C° 0 mm 1 m/s 635 mmHg 78%
    18:00 -9°C° 0 mm 1 m/s 635 mmHg 79%
    19:00 -9°C° 0 mm 1 m/s 635 mmHg 78%
    20:00 -9°C° 0 mm 1 m/s 636 mmHg 77%
    21:00 -10°C° 0 mm 1 m/s 636 mmHg 77%
    22:00 -10°C° 0 mm 1 m/s 636 mmHg 75%
    23:00 -10°C° 0 mm 1 m/s 636 mmHg 74%

    26 Novembro, Domingo

    Tempo Temperatura Precipitação Vento Pressão Humidade
    00:00 -10°C° 0 mm 1 m/s 636 mmHg 73%
    01:00 -10°C° 0 mm 1 m/s 636 mmHg 72%
    02:00 -10°C° 0 mm 1 m/s 636 mmHg 72%
    03:00 -10°C° 0 mm 1 m/s 635 mmHg 71%
    04:00 -10°C° 0 mm 1 m/s 635 mmHg 70%
    05:00 -10°C° 0 mm 1 m/s 635 mmHg 69%
    06:00 -10°C° 0 mm 1 m/s 635 mmHg 68%
    07:00 -9°C° 0 mm 1 m/s 636 mmHg 68%
    08:00 -8°C° 0 mm 1 m/s 636 mmHg 67%
    09:00 -7°C° 0 mm 1 m/s 636 mmHg 67%
    10:00 -4°C° 0 mm 1 m/s 636 mmHg 65%
    11:00 -3°C° 0 mm 1 m/s 636 mmHg 63%
    12:00 -1°C° 0 mm 1 m/s 636 mmHg 62%
    13:00 -1°C° 0 mm 1 m/s 636 mmHg 62%
    14:00 -1°C° 0 mm 1 m/s 635 mmHg 62%
    15:00 -2°C° 0 mm 1 m/s 635 mmHg 62%
    16:00 -3°C° 0 mm 1 m/s 635 mmHg 61%
    17:00 -6°C° 0 mm 1 m/s 635 mmHg 60%
    18:00 -7°C° 0 mm 1 m/s 635 mmHg 60%
    19:00 -7°C° 0 mm 1 m/s 635 mmHg 58%
    20:00 -7°C° 0 mm 1 m/s 635 mmHg 56%
    21:00 -7°C° 0 mm 1 m/s 635 mmHg 55%
    22:00 -8°C° 0 mm 1 m/s 635 mmHg 54%
    23:00 -8°C° 0 mm 1 m/s 635 mmHg 54%

    27 Novembro, Segunda-feira

    Tempo Temperatura Precipitação Vento Pressão Humidade
    00:00 -8°C° 0 mm 1 m/s 635 mmHg 54%
    01:00 -8°C° 0 mm 1 m/s 635 mmHg 53%
    02:00 -8°C° 0 mm 1 m/s 635 mmHg 53%
    03:00 -8°C° 0 mm 1 m/s 635 mmHg 53%
    04:00 -8°C° 0 mm 1 m/s 634 mmHg 53%
    05:00 -8°C° 0 mm 1 m/s 634 mmHg 53%
    06:00 -9°C° 0 mm 2 m/s 634 mmHg 53%
    07:00 -8°C° 0 mm 2 m/s 634 mmHg 54%
    08:00 -7°C° 0 mm 2 m/s 635 mmHg 56%
    09:00 -6°C° 0 mm 2 m/s 635 mmHg 57%
    10:00 -4°C° 0 mm 2 m/s 635 mmHg 58%
    11:00 -3°C° 0 mm 2 m/s 634 mmHg 59%
    12:00 -1°C° 0 mm 2 m/s 634 mmHg 60%
    13:00 -1°C° 0 mm 2 m/s 634 mmHg 58%
    14:00 -2°C° 0 mm 2 m/s 633 mmHg 56%
    15:00 -2°C° 0 mm 2 m/s 633 mmHg 55%
    16:00 -1°C° 0 mm 1 m/s 633 mmHg 53%
    17:00 -3°C° 0 mm 1 m/s 633 mmHg 51%
    18:00 -6°C° 0 mm 1 m/s 633 mmHg 50%
    19:00 -6°C° 0 mm 1 m/s 633 mmHg 50%
    20:00 -6°C° 0 mm 1 m/s 633 mmHg 50%
    21:00 -6°C° 0 mm 1 m/s 633 mmHg 49%
    22:00 -7°C° 0 mm 2 m/s 633 mmHg 50%
    23:00 -7°C° 0 mm 2 m/s 632 mmHg 50%

    28 Novembro, Terça-feira

    Tempo Temperatura Precipitação Vento Pressão Humidade
    00:00 -8°C° 0 mm 2 m/s 632 mmHg 51%
    01:00 -8°C° 0 mm 2 m/s 632 mmHg 52%
    02:00 -8°C° 0 mm 2 m/s 632 mmHg 52%
    03:00 -8°C° 0 mm 2 m/s 632 mmHg 53%
    04:00 -8°C° 0 mm 2 m/s 632 mmHg 54%
    05:00 -8°C° 0 mm 2 m/s 632 mmHg 55%
    06:00 -8°C° 0 mm 2 m/s 632 mmHg 56%
    07:00 -7°C° 0 mm 2 m/s 632 mmHg 58%
    08:00 -6°C° 0 mm 2 m/s 632 mmHg 60%
    09:00 -5°C° 0 mm 2 m/s 632 mmHg 63%
    10:00 -3°C° 0 mm 2 m/s 632 mmHg 64%
    11:00 -2°C° 0 mm 2 m/s 632 mmHg 65%
    12:00 +1°C° 0 mm 2 m/s 632 mmHg 66%
    13:00 -1°C° 0 mm 2 m/s 632 mmHg 68%
    14:00 -1°C° 0 mm 2 m/s 632 mmHg 69%
    15:00 -1°C° 0 mm 2 m/s 632 mmHg 70%
    16:00 -2°C° 0 mm 2 m/s 632 mmHg 71%
    17:00 -3°C° 0 mm 2 m/s 632 mmHg 73%
    18:00 -5°C° 0 mm 2 m/s 632 mmHg 74%
    19:00 -5°C° 0 mm 2 m/s 632 mmHg 76%
    20:00 -5°C° 0 mm 2 m/s 632 mmHg 77%
    21:00 -5°C° 0 mm 2 m/s 632 mmHg 79%
    22:00 -5°C° 0 mm 2 m/s 632 mmHg 80%
    23:00 -5°C° 0 mm 2 m/s 632 mmHg 82%
    Mostrar mais